STAR ONE C4 (40733 NORAD) Tracking and Keplerian Element Data

This shows tracking and keplerian element data for the satellite.

Feedback or suggestion? Click here.




ElementValue
Catalog40733
NameSTAR ONE C4
Epoch Orbit1229
Epoch Day323.03322101
Epoch Year2018
RAAN82.7753
Inclination0.0634
Eccentricity0.0002067
Argument of Perigee202.0979
Mean Anonmoly75.1388
Mean Motion1.00272572
Decay Rate-2.56E-06
L11 40733U 15034B 18323.03322101 -.00000256 00000-0 00000+0 0 9992
L22 40733 0.0634 82.7753 0002067 202.0979 75.1388 1.00272572 12290

Live tracking and technical data element details for STAR ONE C4 (NORAD 40733). STAR ONE C4 can be tracked NOW for your location showing map with azimuth and elevation plus other details from your city location.

Track the satellite on the map from your city or location and see movement details for azimuth, elevation, latitude, longitude, range, height, and movement on the map or in text.







IsCatalogInMostPopularTable: catalog: 40733, numindb: 202
Update: records affected: 1



GetName: 40733 STAR ONE C4

Hit Count: updated at: Mon, 19 Nov 2018 12:01:57 GMT